Location: Kunchanapalle
(16.4623°N, 80.6176°E)
Time: 19:00:37
(UTC+00:00)

Cosmos 1745 Rocket - Pass Details

Date: 13 August 2020
Orbit: 952 x 999 km, 83.0° (Epoch: 20 September)

Event Time Altitude Azimuth Distance (km) Brightness Sun altitude
Rises 22:36:39 0° 349° (N) 3,659 7.2 -24.5°
Reaches altitude 10° 22:39:12 10° 345° (NNW) 2,704 6.4 -23.9°
Maximum altitude 22:45:14 58° 268° (W) 1,112 3.9 -22.6°
Enters shadow 22:48:03 31° 204° (SSW) 1,599 4.7 -22.0°
